Temperature
0 1 1 1 1 1 1 2 2 2 2 3 2 2 3 3 3 3 3 3 4 4 4 4 4 4 4 4 4 4 4 5 5 4 4 4 5 5 5 5 5 5 5 5
0 1 1 1 1 1 1 1 1 1 2 2 2 3 2 3 3 2 2 3 3 3 3 3 3 3 4 4 4 4 4 4 4 4 4 4 4 4 4 4 4 4 4 4
-0 -0 0 0 0 1 1 0 0 1 2 1 1 1 2 2 2 2 2 2 3 3 3 3 3 3 3 3 3 3 3 3 3 3 3 3 3 3 3 3 3 3 3 3
-2 -1 0 2 -0 -0 0 -0 -1 -0 -0 0 1 1 2 2 2 2 2 2 2 2 2 2 2 2 3 3 2 2 2 2 3 2 2 2 3 3 3 3 3 3 2 3
-3 -2 -1 -0 -1 -1 -1 -1 -1 -1 -1 0 1 1 1 2 2 2 2 2 2 2 2 2 2 2 2 2 2 2 2 2 2 2 2 2 2 2 2 2 2 2 2 2
-3 -1 -0 1 -1 -1 -1 -0 -1 -1 -1 -1 -0 -1 -0 2 2 1 1 1 1 1 1 1 1 1 1 1 1 1 1 1 1 1 1 1 1 1 1 1 1 1 1 1
-3 -3 -2 -1 -2 -1 0 1 -0 -1 -1 -1 -1 -0 0 1 1 1 1 1 1 1 1 1 1 1 0 0 0 0 0 1 1 1 1 1 1 1 1 1 1 1 1 1
-4 -3 -1 -2 -2 -2 -1 -0 -0 -0 -0 -0 -0 -0 -0 0 0 0 0 0 0 0 0 -0 -0 -0 -0 -0 -0 -0 -0 0 -0 0 0 0 0 0 0 0 1 1 0 0
-3 -2 -2 -2 -1 -0 -0 -0 -0 -0 0 -0 -0 -0 -0 -0 -0 -0 -0 -0 -0 -1 -1 -1 -1 -1 -1 -1 -1 -1 -1 -1 -1 -1 -0 -0 -0 -0 -0 0 0 -0 -0 -0
-5 -4 -3 -2 -1 -0 -0 -0 -0 -0 -0 -1 -1 -1 -1 -1 -1 -1 -1 -1 -1 -1 -1 -1 -1 -1 -1 -1 -1 -1 -1 -1 -1 -1 -1 -1 -1 -1 -0 -0 -1 -1 -1 -1
-5 -5 -3 -2 -1 -0 -0 -1 -1 -1 -1 -1 -1 -1 -1 -1 -1 -1 -1 -1 -1 -1 -1 -2 -2 -2 -2 -2 -2 -1 -1 -1 -1 -1 -1 -1 -1 -1 -1 -1 -1 -1 -1 -1
-3 -2 -3 -1 -0 -1 -1 -1 -1 -1 -1 -2 -2 -2 -2 -2 -2 -2 -2 -2 -2 -2 -2 -2 -2 -2 -2 -2 -2 -2 -2 -2 -2 -2 -2 -2 -2 -2 -2 -2 -2 -2 -2 -1
-1 -1 -1 -1 -1 -1 -1 -1 -2 -2 -2 -2 -2 -2 -2 -2 -3 -3 -3 -2 -2 -2 -2 -2 -2 -2 -2 -2 -2 -2 -2 -2 -2 -2 -2 -2 -2 -2 -3 -2 -2 -2 -2 -2
-1 -2 -2 -2 -2 -2 -2 -2 -2 -2 -2 -3 -3 -3 -3 -3 -3 -3 -3 -3 -3 -3 -3 -3 -3 -3 -3 -3 -3 -3 -2 -3 -3 -2 -3 -3 -3 -3 -3 -3 -3 -3 -3 -3
-2 -2 -2 -2 -3 -3 -3 -3 -3 -3 -3 -3 -3 -3 -3 -3 -3 -3 -3 -3 -3 -3 -3 -3 -3 -3 -3 -3 -3 -3 -3 -3 -3 -3 -3 -3 -3 -3 -3 -3 -3 -3 -3 -3
-3 -3 -3 -3 -3 -3 -4 -4 -4 -4 -4 -4 -4 -4 -4 -3 -3 -3 -4 -4 -4 -4 -4 -4 -4 -4 -4 -4 -4 -4 -4 -4 -4 -4 -4 -4 -4 -4 -4 -4 -4 -4 -4 -4
-4 -4 -4 -4 -4 -4 -4 -4 -4 -4 -4 -4 -4 -4 -4 -4 -4 -4 -4 -4 -4 -4 -4 -4 -4 -4 -4 -4 -4 -4 -4 -4 -4 -4 -4 -4 -4 -4 -4 -4 -4 -4 -4 -4
-4 -4 -4 -4 -4 -4 -4 -4 -4 -4 -4 -4 -4 -4 -4 -4 -4 -4 -4 -4 -4 -4 -4 -4 -5 -5 -5 -5 -5 -5 -4 -4 -5 -5 -5 -5 -4 -4 -4 -4 -5 -5 -5 -5
-4 -4 -4 -4 -4 -4 -4 -4 -4 -5 -5 -5 -5 -5 -5 -5 -5 -5 -5 -5 -5 -5 -5 -5 -5 -5 -5 -5 -5 -5 -5 -5 -5 -5 -5 -5 -5 -5 -5 -5 -5 -5 -5 -5
-4 -4 -4 -4 -4 -4 -5 -5 -5 -5 -5 -5 -5 -5 -5 -5 -5 -5 -5 -5 -5 -5 -5 -5 -5 -5 -5 -5 -5 -5 -5 -5 -5 -5 -5 -5 -5 -5 -5 -5 -5 -5 -5 -5
-4 -4 -4 -5 -5 -5 -5 -5 -5 -5 -5 -5 -5 -5 -5 -5 -5 -5 -5 -5 -5 -5 -5 -5 -5 -5 -5 -5 -5 -5 -5 -5 -5 -5 -6 -6 -5 -5 -5 -5 -5 -5 -5 -5
-4 -5 -5 -5 -5 -5 -5 -5 -5 -5 -5 -5 -5 -6 -6 -6 -6 -6 -6 -5 -5 -6 -6 -6 -5 -6 -6 -6 -6 -6 -6 -6 -6 -6 -6 -6 -6 -6 -5 -5 -6 -6 -6 -6
-4 -5 -5 -5 -5 -5 -5 -6 -6 -6 -6 -6 -6 -6 -6 -6 -6 -6 -6 -6 -6 -6 -6 -6 -6 -6 -6 -6 -6 -6 -6 -6 -6 -6 -6 -6 -6 -6 -6 -6 -6 -6 -6 -6
-5 -5 -5 -5 -6 -6 -6 -6 -6 -6 -6 -6 -6 -6 -6 -6 -6 -6 -6 -6 -6 -6 -6 -6 -6 -6 -6 -6 -6 -6 -6 -6 -6 -6 -6 -6 -6 -6 -6 -6 -6 -6 -6 -6
-5 -5 -6 -6 -6 -6 -6 -6 -6 -6 -6 -6 -6 -7 -7 -7 -7 -6 -7 -7 -7 -7 -6 -6 -6 -6 -7 -7 -7 -6 -6 -6 -6 -7 -7 -6 -6 -6 -6 -6 -6 -6 -6 -6
-5 -6 -6 -6 -6 -6 -7 -7 -7 -7 -7 -7 -7 -7 -7 -7 -7 -7 -7 -7 -7 -7 -7 -7 -7 -7 -7 -7 -7 -7 -7 -7 -7 -7 -7 -7 -7 -7 -7 -7 -7 -6 -7 -7
-6 -6 -7 -7 -7 -7 -7 -7 -7 -7 -7 -7 -7 -7 -7 -7 -7 -7 -7 -7 -7 -7 -7 -7 -7 -7 -7 -7 -7 -7 -7 -7 -7 -7 -7 -7 -7 -7 -7 -7 -7 -7 -7 -7
Wind_Speed
4 4 2 2 3 3 4 5 6 6 7 10 7 5 3 2 1 1 1 2 2 3 2 2 1 2 2 2 2 2 3 3 3 3 3 3 3 3 2 2 2 2 2 2
2 2 1 3 5 5 6 5 7 7 9 8 6 2 2 2 1 2 3 2 2 2 2 2 2 2 2 2 2 2 2 3 2 2 3 3 3 2 2 2 2 2 2 3
3 3 3 5 6 7 4 4 5 8 9 5 3 2 3 2 2 3 4 3 2 2 2 2 3 3 3 2 2 2 2 2 2 2 2 2 2 2 2 2 2 2 1 2
1 3 4 6 2 4 5 5 6 5 5 4 5 4 3 2 3 3 3 3 2 2 2 2 2 1 1 2 2 2 2 2 2 2 2 2 2 2 2 2 2 2 2 2
2 2 6 6 3 3 4 6 5 7 7 6 3 3 4 3 2 3 3 3 2 2 2 1 1 1 1 1 1 1 1 1 2 2 2 2 2 2 2 2 2 2 2 2
3 3 6 6 2 1 2 6 4 5 6 4 1 1 5 3 1 2 2 1 1 1 0 1 1 1 2 1 1 1 1 1 1 2 2 3 3 2 2 2 2 1 1 1
4 5 8 6 2 3 4 7 3 3 4 3 3 5 4 3 2 1 1 1 0 0 0 1 1 1 1 1 1 1 1 1 1 1 2 2 2 2 2 2 1 1 1 0
5 5 8 4 4 6 7 2 2 2 2 2 3 4 3 2 2 2 1 1 1 1 1 1 0 2 1 1 1 1 1 0 0 0 1 1 2 2 2 2 2 2 1 0
9 8 4 5 6 5 2 3 3 3 3 2 3 3 3 3 2 2 1 1 1 0 1 2 1 1 1 1 1 1 1 1 1 0 1 1 2 2 2 2 2 2 2 2
5 8 6 6 5 4 4 5 4 4 3 3 4 4 4 3 3 2 1 1 1 0 1 2 2 1 1 1 1 1 1 1 1 1 1 1 1 2 2 3 3 2 2 2
6 6 5 6 7 7 6 4 4 3 3 4 4 4 4 3 3 2 2 2 1 1 1 2 2 1 1 0 1 1 2 1 1 1 2 1 1 1 2 2 3 3 3 3
8 7 6 6 5 5 5 5 5 4 3 3 4 5 4 3 3 2 2 1 1 1 1 2 1 1 2 1 0 2 2 1 1 1 1 1 1 1 1 0 0 1 2 2
7 5 5 5 4 4 5 5 5 4 5 4 4 4 4 3 2 2 2 2 2 2 2 1 1 1 2 1 0 1 2 1 1 1 1 1 1 2 1 2 2 2 2 1
5 2 3 4 4 4 4 4 3 3 3 3 3 3 3 2 2 2 2 3 2 1 1 1 1 2 2 1 0 1 1 1 1 1 1 1 1 2 2 1 1 1 1 1
6 6 6 4 2 2 2 2 2 2 2 2 2 2 3 3 3 3 2 2 1 1 1 1 2 3 2 1 1 1 1 1 1 1 1 1 1 1 2 1 1 0 1 1
4 3 3 3 4 3 2 2 3 3 3 2 3 3 4 3 3 2 2 1 1 2 2 2 2 3 2 1 1 1 1 1 1 1 1 1 1 2 2 1 1 1 0 0
4 3 3 4 4 4 4 4 4 4 3 4 4 4 3 2 1 2 2 2 2 2 3 2 3 2 1 1 1 1 1 1 1 1 1 1 1 1 1 1 1 1 1 1
6 5 5 6 5 5 5 4 4 4 4 4 3 3 3 3 3 3 3 1 1 1 2 2 2 1 1 1 1 1 1 1 1 1 1 1 1 1 1 1 1 1 0 0
3 4 4 4 4 5 4 4 4 4 3 3 3 4 4 4 4 3 2 1 1 2 3 2 2 1 0 1 0 1 2 1 1 1 1 1 1 1 1 1 1 0 0 0
2 2 3 3 3 3 3 3 3 3 3 3 3 3 3 3 3 3 2 3 3 3 2 2 1 1 1 1 1 1 2 2 2 1 1 1 1 1 1 1 1 0 0 0
3 3 2 2 2 2 3 3 3 3 3 3 4 4 4 3 3 3 3 3 3 2 2 2 1 1 1 1 1 1 2 2 2 1 1 1 1 1 1 1 0 0 0 0
3 3 3 3 2 2 2 2 3 3 3 3 3 3 3 3 3 2 3 3 3 3 2 2 1 2 2 1 1 1 1 1 1 1 1 1 1 1 1 1 1 1 1 1
3 3 3 3 3 3 2 2 3 3 4 4 4 4 4 4 3 3 3 2 2 3 2 2 2 2 2 1 1 2 1 1 1 1 1 1 1 1 1 1 1 1 1 1
3 3 3 2 2 2 3 3 3 2 3 3 3 4 4 3 2 3 2 4 4 3 2 2 3 2 2 1 2 1 1 1 1 1 1 1 1 1 1 1 1 1 1 1
3 3 3 3 3 3 3 2 1 2 2 2 2 2 2 3 3 3 2 3 4 3 1 2 3 2 1 1 2 1 1 1 1 1 1 1 1 1 1 1 1 1 1 1
3 3 4 4 4 3 3 2 2 2 2 2 2 1 1 1 2 2 2 2 3 3 1 1 1 1 1 1 1 1 1 1 1 1 1 1 1 1 1 1 1 1 1 2
2 2 2 2 3 3 3 3 3 3 3 3 2 2 1 1 1 1 1 1 1 1 1 0 0 1 1 1 1 1 1 1 1 1 1 1 1 1 1 2 2 2 2 2
Wind_Direction
253 265 233 239 250 215 206 213 215 246 249 269 283 275 264 250 235 194 215 221 214 212 204 203 205 214 213 204 198 187 179 189 193 184 172 166 166 183 184 184 195 195 184 188
297 282 259 289 273 234 232 243 247 263 274 278 299 311 293 268 226 244 248 250 245 239 222 211 208 213 207 208 207 181 185 205 191 171 165 168 174 178 169 182 192 186 194 190
279 315 4 283 251 216 215 218 207 238 257 287 307 293 266 243 245 249 252 249 240 243 240 239 235 213 203 207 195 174 190 197 180 164 164 173 172 172 177 190 186 188 211 195
308 26 242 245 237 205 216 241 224 247 272 272 262 275 280 238 221 247 258 261 257 251 258 264 258 234 192 180 178 185 191 185 173 172 183 183 170 184 189 182 190 198 213 197
150 243 275 288 252 187 203 266 238 240 266 285 302 345 314 280 224 238 244 246 242 247 250 253 244 214 170 168 170 187 186 183 194 192 192 186 187 204 199 183 197 206 207 187
149 190 240 256 254 209 127 286 256 223 246 270 53 299 281 301 302 279 272 260 249 257 276 236 238 170 157 178 183 196 202 220 219 206 196 197 197 205 201 190 201 206 199 187
191 222 261 258 253 125 166 254 262 211 226 217 211 235 276 305 308 285 262 275 167 141 284 261 235 139 153 179 208 221 216 219 225 221 209 197 183 195 187 174 166 177 163 201
177 206 251 217 151 189 223 252 210 216 226 236 249 279 294 292 288 298 313 341 6 18 319 309 215 145 149 203 209 159 152 185 235 202 204 193 163 177 179 164 165 170 161 186
196 215 246 195 209 233 212 218 226 222 233 230 252 271 285 285 279 270 245 297 337 358 325 323 312 158 163 241 191 146 147 169 198 215 200 200 176 176 177 174 178 187 189 195
241 255 252 244 253 259 233 228 233 226 225 220 242 263 274 276 272 267 257 255 280 265 314 324 331 348 198 216 166 145 158 174 177 164 180 191 196 187 190 193 186 195 198 197
252 271 287 261 240 243 246 242 238 239 230 224 227 249 250 261 256 252 264 270 261 236 247 291 314 334 320 285 150 146 149 161 167 167 168 174 216 227 224 223 205 199 199 194
233 227 214 243 234 220 222 231 230 231 246 243 222 234 244 252 251 243 253 264 275 274 270 284 299 306 305 295 205 150 142 143 159 167 166 164 155 76 25 222 218 213 205 206
232 233 223 251 242 217 217 230 235 229 229 243 239 225 226 238 248 241 252 257 254 264 271 278 293 288 286 278 234 169 176 189 178 169 168 168 162 148 111 52 65 88 123 143
232 224 252 246 241 232 226 233 239 245 242 229 228 226 215 224 241 239 248 259 253 257 271 275 283 283 282 275 196 174 184 205 188 166 170 182 178 168 163 152 98 31 32 69
232 225 231 245 242 239 222 197 205 242 250 251 223 213 208 209 229 246 257 267 250 251 267 273 281 286 290 269 174 179 183 179 169 160 163 169 157 147 147 146 141 109 40 39
231 227 216 216 223 225 210 205 215 234 238 232 225 223 218 211 221 246 258 235 205 242 260 269 281 289 292 251 165 179 192 191 163 148 145 152 150 147 142 140 143 150 171 261
186 216 220 227 230 232 228 224 218 227 227 227 230 222 210 191 206 245 260 255 235 246 252 259 273 288 285 248 192 191 177 169 150 125 148 162 154 154 154 154 163 168 243 262
209 210 208 207 214 223 231 229 222 222 222 224 215 198 197 200 211 229 246 265 298 308 286 271 277 288 269 241 198 173 162 151 144 149 148 151 139 143 139 145 161 161 151 7
204 202 205 206 205 206 218 224 224 221 219 212 204 207 214 215 215 221 220 213 227 271 286 286 292 318 269 254 146 139 137 139 137 142 146 159 124 117 128 132 128 103 108 68
201 202 201 206 203 205 220 224 217 217 217 202 198 202 209 215 207 205 204 223 234 242 255 267 267 262 253 241 115 125 142 152 155 153 150 149 146 137 133 131 136 148 152 148
207 207 206 210 223 227 219 212 207 220 221 202 199 209 215 220 209 200 202 243 264 256 248 253 253 234 222 195 143 134 150 162 167 167 170 166 156 148 152 154 168 186 197 192
213 209 217 220 220 240 242 218 208 210 213 215 214 206 201 211 214 221 229 232 240 247 243 239 238 211 195 173 141 146 156 165 168 167 173 175 175 183 197 198 203 211 203 204
219 217 217 219 220 229 241 228 213 207 211 217 215 209 208 215 210 209 243 247 237 237 234 232 228 208 193 150 147 161 167 172 177 184 195 199 197 201 211 218 224 219 216 221
218 218 220 215 194 199 229 240 229 221 220 227 225 216 205 208 232 230 226 230 233 237 230 224 217 206 179 137 151 157 167 182 189 190 198 200 198 206 218 223 227 234 234 229
211 211 204 192 203 222 228 224 222 224 215 229 239 229 216 207 212 224 224 218 214 214 222 222 216 204 152 136 156 168 182 193 191 187 198 203 206 212 220 220 222 231 227 218
211 215 219 218 218 218 210 204 211 215 205 222 251 242 221 205 200 207 213 213 210 204 205 225 215 189 151 157 170 183 196 219 226 209 198 202 209 213 222 224 215 212 207 209
206 211 213 225 224 211 206 205 209 214 210 208 228 238 218 198 184 182 187 192 195 193 187 177 156 157 163 171 187 199 196 201 204 203 202 204 206 211 203 199 202 203 202 201
Height
1494 1491 1491 1490 1489 1489 1489 1488 1488 1482 1480 1472 1469 1468 1466 1465 1464 1464 1464 1464 1465 1465 1466 1467 1468 1469 1471 1471 1472 1473 1474 1475 1476 1477 1479 1480 1482 1484 1485 1486 1488 1489 1490 1490
1494 1490 1490 1490 1487 1486 1487 1486 1484 1481 1478 1470 1469 1467 1466 1465 1464 1464 1463 1463 1463 1463 1463 1464 1465 1466 1467 1468 1469 1469 1470 1471 1472 1473 1474 1476 1478 1480 1481 1482 1484 1485 1486 1486
1496 1494 1490 1490 1484 1483 1483 1482 1481 1479 1473 1469 1468 1467 1465 1464 1464 1463 1463 1462 1462 1462 1462 1462 1463 1464 1464 1465 1466 1466 1467 1467 1468 1469 1471 1472 1474 1476 1477 1478 1480 1481 1482 1483
1501 1498 1495 1480 1478 1478 1478 1476 1476 1473 1470 1468 1466 1465 1464 1464 1463 1462 1462 1461 1461 1461 1461 1461 1461 1461 1461 1462 1463 1463 1464 1464 1465 1466 1467 1469 1470 1472 1473 1474 1476 1477 1478 1479
1505 1503 1492 1481 1477 1477 1478 1475 1471 1470 1467 1466 1465 1464 1462 1462 1462 1461 1461 1460 1460 1459 1459 1458 1459 1459 1459 1459 1460 1460 1460 1461 1462 1463 1464 1465 1466 1468 1469 1470 1472 1473 1474 1475
1504 1499 1490 1475 1474 1473 1476 1474 1466 1465 1465 1464 1464 1467 1463 1460 1460 1459 1459 1459 1458 1457 1457 1456 1456 1457 1457 1456 1457 1457 1458 1459 1460 1461 1462 1462 1463 1465 1466 1467 1469 1470 1471 1472
1501 1500 1486 1475 1473 1473 1478 1469 1463 1462 1462 1462 1463 1462 1461 1459 1458 1458 1457 1457 1456 1455 1455 1454 1454 1454 1454 1454 1454 1455 1455 1456 1457 1458 1459 1459 1460 1461 1463 1464 1466 1467 1468 1468
1498 1497 1483 1470 1471 1471 1466 1462 1461 1461 1461 1461 1460 1459 1458 1458 1457 1456 1455 1455 1454 1453 1453 1452 1452 1452 1451 1451 1452 1452 1453 1453 1454 1455 1455 1456 1457 1458 1460 1461 1462 1463 1464 1465
1481 1474 1466 1464 1463 1461 1461 1460 1459 1459 1459 1459 1458 1457 1457 1456 1455 1454 1454 1453 1453 1452 1451 1451 1450 1450 1449 1448 1449 1449 1449 1450 1451 1451 1452 1453 1454 1455 1457 1458 1459 1460 1461 1462
1473 1465 1462 1460 1460 1459 1459 1458 1457 1458 1457 1457 1456 1456 1455 1454 1453 1453 1452 1452 1451 1450 1449 1448 1448 1448 1447 1446 1446 1445 1446 1446 1447 1448 1449 1451 1452 1453 1454 1455 1456 1457 1458 1459
1467 1461 1458 1456 1455 1455 1455 1455 1455 1455 1455 1454 1454 1453 1453 1452 1451 1451 1450 1450 1449 1448 1447 1447 1446 1445 1445 1444 1443 1442 1443 1443 1444 1445 1446 1448 1449 1450 1452 1453 1454 1455 1455 1456
1458 1453 1454 1451 1451 1452 1452 1452 1452 1452 1451 1452 1451 1450 1450 1449 1449 1449 1448 1448 1447 1446 1445 1444 1444 1443 1443 1442 1441 1441 1440 1441 1442 1443 1444 1445 1446 1447 1449 1450 1451 1452 1453 1454
1449 1448 1449 1448 1448 1449 1449 1448 1449 1448 1448 1448 1448 1448 1447 1447 1447 1446 1446 1445 1445 1444 1443 1443 1442 1441 1441 1440 1440 1439 1439 1439 1440 1441 1442 1442 1443 1444 1445 1447 1448 1449 1450 1450
1446 1446 1445 1444 1445 1445 1445 1445 1445 1445 1445 1445 1445 1445 1445 1444 1444 1444 1444 1444 1443 1443 1442 1441 1440 1440 1439 1439 1438 1437 1438 1438 1438 1439 1439 1440 1441 1442 1443 1444 1444 1445 1447 1448
1441 1442 1442 1441 1441 1441 1442 1442 1442 1442 1442 1442 1442 1442 1442 1442 1442 1442 1442 1442 1441 1441 1440 1439 1439 1438 1438 1437 1436 1436 1436 1436 1436 1437 1438 1439 1439 1440 1441 1442 1442 1443 1444 1445
1437 1437 1438 1437 1437 1438 1438 1438 1438 1438 1439 1439 1439 1440 1440 1440 1440 1440 1440 1440 1439 1438 1438 1437 1437 1436 1436 1435 1434 1434 1434 1434 1435 1435 1436 1437 1438 1438 1439 1440 1441 1441 1442 1443
1432 1432 1432 1433 1433 1434 1434 1435 1435 1435 1436 1436 1437 1437 1438 1437 1437 1438 1438 1438 1437 1437 1436 1436 1435 1435 1435 1434 1433 1433 1433 1433 1434 1434 1435 1435 1436 1437 1437 1438 1439 1439 1440 1441
1429 1429 1430 1430 1430 1431 1431 1432 1432 1433 1433 1434 1434 1435 1435 1435 1435 1435 1435 1436 1435 1435 1435 1434 1434 1433 1433 1433 1432 1432 1432 1432 1433 1433 1434 1434 1435 1435 1436 1437 1438 1438 1439 1440
1426 1427 1427 1428 1428 1429 1429 1429 1429 1430 1430 1431 1431 1432 1432 1432 1433 1433 1433 1433 1432 1432 1432 1432 1432 1432 1431 1431 1431 1431 1431 1431 1432 1432 1433 1433 1434 1434 1435 1436 1436 1437 1438 1438
1424 1424 1425 1425 1426 1426 1426 1426 1427 1427 1428 1428 1429 1429 1429 1430 1430 1431 1431 1430 1430 1430 1431 1431 1430 1430 1430 1430 1430 1430 1430 1431 1431 1431 1432 1433 1433 1434 1434 1435 1435 1436 1436 1437
1421 1422 1422 1423 1423 1424 1424 1424 1424 1424 1425 1425 1426 1426 1427 1427 1428 1428 1428 1428 1429 1429 1429 1429 1429 1429 1429 1429 1429 1429 1430 1430 1430 1431 1431 1432 1432 1433 1433 1434 1434 1435 1435 1435
1419 1420 1420 1421 1421 1421 1421 1422 1422 1422 1422 1423 1423 1424 1424 1425 1425 1425 1426 1426 1426 1427 1427 1427 1427 1428 1428 1428 1428 1428 1429 1429 1429 1430 1430 1431 1431 1432 1432 1433 1433 1433 1434 1434
1417 1418 1418 1418 1418 1418 1419 1419 1419 1419 1419 1420 1421 1421 1421 1422 1422 1423 1423 1424 1424 1425 1425 1425 1426 1426 1426 1427 1427 1427 1428 1428 1428 1429 1429 1430 1430 1431 1431 1432 1432 1432 1433 1433
1415 1415 1415 1415 1416 1415 1415 1416 1416 1416 1417 1417 1418 1418 1419 1419 1420 1421 1421 1422 1422 1423 1423 1423 1424 1424 1425 1425 1425 1426 1426 1426 1427 1427 1428 1428 1429 1430 1430 1431 1431 1431 1431 1432
1412 1412 1412 1412 1412 1412 1413 1413 1413 1414 1414 1414 1415 1416 1417 1417 1418 1418 1419 1419 1420 1421 1421 1422 1422 1423 1423 1423 1424 1424 1424 1425 1425 1426 1426 1427 1428 1428 1429 1429 1430 1430 1430 1431
1408 1408 1408 1409 1409 1409 1410 1410 1410 1411 1412 1412 1412 1413 1414 1415 1415 1416 1417 1417 1418 1419 1419 1420 1420 1421 1421 1421 1422 1422 1423 1423 1424 1424 1425 1426 1426 1427 1428 1428 1428 1429 1429 1429
1404 1405 1405 1405 1406 1406 1407 1407 1408 1409 1409 1410 1410 1411 1411 1412 1413 1414 1415 1415 1416 1417 1417 1418 1418 1419 1419 1419 1420 1420 1421 1422 1422 1423 1423 1424 1425 1425 1426 1427 1427 1427 1428 1428